Simultaneous Nadir Overpasses (SNOs) Predictions

Prediction of SNOs between NOAA-19 and NPP Satellite Orbit:

Table of predicted SNOs for the next 14.0 days since TLE Epoch: 1/9/2015
Index Date (NOAA-19) Time (NOAA-19) Lat,Lon (NOAA-19) SZA (NOAA-19 ) Date (NPP) Time (NPP) Lat,Lon (NPP) SZA (NPP ) Distance(km) Time Diff (sec)
1 01/21/2015 08:24:09 80.95, 4.24 104.26 01/21/2015 08:25:09 80.95, 4.17 104.23 1.19 60
2 01/21/2015 09:15:07 -80.95, 171.41 75.74 01/21/2015 09:15:54 -80.96, 171.37 75.76 0.93 47
3 01/21/2015 10:06:11 80.94, -20.89 104.19 01/21/2015 10:06:38 80.94, -20.93 104.18 0.80 27
4 01/21/2015 10:57:09 -80.94, 146.28 75.81 01/21/2015 10:57:23 -80.94, 146.26 75.82 0.34 14
5 01/21/2015 11:48:14 80.94, -46.39 104.17 01/21/2015 11:48:08 80.94, -46.40 104.18 0.42 6
6 01/21/2015
